Regional Weather Roundup
Issued by NWS

Home | Current Version | Previous Version | Text Only | Print | Product List | Glossary Off
Versions: 1 2 3 4 5 6 7 8 9 10 11 12 13 14 15 16 17 18 19 20 21 22 23 24 25 26 27 28 29 30 31 32 33 34 35 36 37 38 39 40 41 42 43 44 45 46 47 48 49 50

000
ASUS43 KLOT 310206
RWRIL

ILLINOIS REGIONAL WEATHER ROUNDUP
NATIONAL WEATHER SERVICE CHICAGO/ROMEOVILLE IL
800 PM CST FRI JAN 30 2015

NOTE: "FAIR" INDICATES FEW OR NO CLOUDS BELOW 12,000 FEET WITH NO
SIGNIFICANT WEATHER AND/OR OBSTRUCTIONS TO VISIBILITY.

* THESE STATIONS ARE NOT UNDER NWS QUALITY CONTROL. THEY ALSO MAY NOT
  REPORT WEATHER SUCH AS PRECIPITATION OR FOG.

ILZ001-002-007-009-015-016-024-310300-
NORTHWEST ILLINOIS

CITY           SKY/WX    TMP DP  RH WIND       PRES   REMARKS
MOLINE         FAIR      22  17  81 S3        30.39F
STERLING*      CLEAR     21  16  79 S3        30.40F
SAVANNA*       CLEAR     22  16  76 SE3       30.39F
$$

ILZ003-004-008-010-011-017-018-310300-
NORTH CENTRAL ILLINOIS

CITY           SKY/WX    TMP DP  RH WIND       PRES   REMARKS
ROCKFORD       CLEAR     19  12  74 S6        30.41F WCI  11
FREEPORT*      CLEAR     16  12  83 S6        30.40F WCI   7
ROCHELLE*      CLEAR     19  16  86 S5        30.41F WCI  12
DE KALB*       CLEAR     20  13  76 SW3       30.40F
PERU*          CLEAR     23  18  80 E3        30.42F
$$

ILZ005-006-012>014-019>023-310300-
NORTHEAST ILLINOIS

CITY           SKY/WX    TMP DP  RH WIND       PRES   REMARKS
CHICAGO-OHARE  FAIR      23  12  62 CALM      30.41S
CHICAGO-MIDWAY PTCLDY    25  14  63 W5        30.42F WCI  19
AURORA         CLEAR     21  13  71 CALM      30.41F
LANSING*       CLEAR     24  15  67 W3        30.43S
JOLIET*        CLEAR     21  15  76 CALM      30.43F
WAUKEGAN       PTCLDY    19  11  70 S3        30.40F
DUPAGE AIRPORT CLEAR     21  13  71 SW5       30.40F WCI  15
KANKAKEE*      CLEAR     24  19  82 S3        30.43F
WHEELING       CLEAR     24  11  57 CALM      30.43S
MORRIS*        CLEAR     23  18  80 CALM      30.42F
ROMEOVILLE*    CLEAR     22  15  75 W3        30.42F
NORTHERLY ISL    N/A     27  15  61 W6          N/A  WCI  21
$$

LMZ740>746-310300-
SOUTHERN LAKE MICHIGAN

STATION/POSITION SKY/WX   TEMP    WIND        PRES    VSBY  WAVE
                          AIR SEA DIR/SP/G                  HT/PER
                          (F)     (DEG/KT/KT) (MB)    (MI)  (FT/S)
WAUKEGAN HARBOR            24     220/  1/  6   N/A
HARRISON CRIB              26     200/  7/  9   N/A
BURNHAM HARBOR             27     260/  6/  6   N/A
CALUMET HARBOR             25     220/  2/  3   N/A
MICHIGAN CITY              23     110/  3/  4   N/A
$$

ILZ025>027-034>036-040-047-049-050-058-095>099-310300-
WEST-CENTRAL ILLINOIS

CITY           SKY/WX    TMP DP  RH WIND       PRES   REMARKS
QUINCY         CLEAR     27  16  63 S5        30.40F WCI  22
GALESBURG*     CLEAR     24  21  87 CALM      30.40F
MACOMB*        CLEAR     27  22  80 SW5       30.43F WCI  22
JACKSONVILLE*  CLEAR     29  19  67 SE3       30.43F
PITTSFIELD*    CLEAR     28  23  80 S3        30.44F
$$

ILZ028>032-037-038-041>044-048-051>054-059>061-310300-
CENTRAL ILLINOIS

CITY           SKY/WX    TMP DP  RH WIND       PRES   REMARKS
PONTIAC        CLEAR     27  24  91 SE3       30.43F
BLOOMINGTON    CLEAR     26  21  81 CALM      30.42F
DECATUR        CLEAR     27  21  78 S3        30.44F
PEORIA         FAIR      27  17  66 CALM      30.42F
LACON*         CLEAR     23  18  81 CALM      30.42F
LINCOLN*       CLEAR     28  22  81 CALM      30.45F
SPRINGFIELD    CLEAR     26  19  74 S3        30.44F
TAYLORVILLE    CLEAR     27  21  80 CALM      30.45S
$$

ILZ033-039-045-046-055>057-062-063-310300-
EAST-CENTRAL ILLINOIS

CITY           SKY/WX    TMP DP  RH WIND       PRES   REMARKS
CHAMPAIGN      CLEAR     26  19  74 S3        30.43F
DANVILLE*      CLEAR     25  19  75 CALM      30.42S
RANTOUL*       CLEAR     27  23  86 S3        30.43F
MATTOON        CLEAR     25  19  78 CALM      30.44F
PARIS*         CLEAR     26  23  89 CALM      30.46S
$$

ILZ079-100>102-310300-
SOUTHWEST ILLINOIS

CITY           SKY/WX    TMP DP  RH WIND       PRES   REMARKS
BELLEVILLE     CLEAR     28  21  78 E1        30.46S
CAHOKIA*       CLEAR     29  21  72 CALM      30.46S
SPARTA*        CLEAR     29  21  74 CALM      30.47S
$$

ILZ064>066-069>071-074>076-080>082-084>086-088>090-092>094-310300-
SOUTH-CENTRAL ILLINOIS

CITY           SKY/WX    TMP DP  RH WIND       PRES   REMARKS
CARBONDALE     CLEAR     29  22  75 CALM      30.47S
CAIRO*         PTCLDY    33  25  70 CALM      30.47S
EFFINGHAM*     CLEAR     26  19  73 CALM      30.47F
MARION         CLEAR     28  21  74 CALM      30.47S
MT. VERNON     CLEAR     25  18  74 CALM      30.47S
CENTRALIA*     CLEAR     26  23  86 CALM      30.46F
SALEM*         CLEAR     28  23  81 CALM      30.46F
METROPOLIS*    PTCLDY    31  23  71 CALM      30.46S
$$

ILZ067-068-072-073-078-083-087-091-310300-
SOUTHEAST ILLINOIS

CITY           SKY/WX    TMP DP  RH WIND       PRES   REMARKS
LAWRENCEVILLE  CLEAR     27  23  85 CALM      30.47F
FLORA*         CLEAR     27  24  87 CALM      30.47F
FAIRFIELD*     CLEAR     27  21  80 CALM      30.47S
HARRISBURG*    CLEAR     28  23  84 CALM      30.48S
ROBINSON*      CLEAR     25  22  86 CALM      30.48F
CARMI*         CLEAR     28  24  85 CALM      30.47S
$$

ABBREVIATIONS USED IN REMARKS
   TC - TEMPERATURE IN CELSIUS
  WCI - WIND CHILL INDEX
   HX - HEAT INDEX
  VSB - VISIBILITY
$$



USA.gov is the U.S. government's official web portal to all federal, state and local government web resources and services.